Regional Weather Roundup
Issued by NWS

Home | Current Version | Previous Version | Text Only | Print | Product List | Glossary On
Versions: 1 2 3 4 5 6 7 8 9 10 11 12 13 14 15 16 17 18 19 20 21 22 23 24 25 26 27 28 29 30 31 32 33 34 35 36 37 38 39 40 41 42 43 44 45 46 47 48 49 50
000
ASUS44 KJAN 281310
RWRMS

MISSISSIPPI HOURLY WEATHER ROUNDUP
NATIONAL WEATHER SERVICE JACKSON MS
800 AM CDT THU AUG 28 2014

NOTE: "FAIR: INDICATES FEW OR NO CLOUDS BELOW 12,000 FEET WITH NO
SIGNIFICANT WEATHER AND/OR OBSTRUCTIONS TO VISIBILITY.

MSZ001>002-007>008-010>013-018>021-025>028-034>036-281400-
NORTHWEST MISSISSIPPI

CITY           SKY/WX    TMP DP  RH WIND       PRES   REMARKS
CLARKSDALE     FAIR      73  72  94 CALM      30.04R
CLEVELAND      FAIR      75  70  84 SE3       30.02R
GREENWOOD      SUNNY     73  67  81 E5        30.03R
GREENVILLE     SUNNY     74  69  85 CALM      30.01R
GRENADA        FAIR      68  68 100 CALM      30.03S
OLIVE BRANCH   MOSUNNY   73  70  88 CALM      30.04S
OXFORD         FAIR      68  66  94 CALM      30.06S
TUNICA         SUNNY     72  70  94 CALM      30.04R
$$

MSZ003>006-009-014>017-022>024-029>033-037>039-281400-
NORTHEAST MISSISSIPPI

CITY           SKY/WX    TMP DP  RH WIND       PRES   REMARKS
BELMONT        FAIR      73  70  88 CALM      30.05S
COLUMBUS AFB   SUNNY     71  67  88 CALM      30.04R
CORINTH        FAIR      73  68  83 CALM      30.04S
GOLDN TRIANGLE MOSUNNY   72  64  78 CALM      30.04R
STARKVILLE     FAIR      70  66  88 CALM      30.04R
TUPELO         PTSUNNY   75  67  76 CALM      30.04R
$$

MSZ040-058-281400-
CENTRAL MISSISSIPPI

CITY           SKY/WX    TMP DP  RH WIND       PRES   REMARKS
JACKSON INTL   MOSUNNY   74  69  85 CALM      30.02R
JACKSON HAWKNS SUNNY     73  68  84 CALM      30.02S
MERIDIAN KEY   MOSUNNY   71  65  81 CALM      30.03R
MERIDIAN NAS   PTSUNNY   68  65  90 CALM      30.03S
RAYMOND        FAIR      72  66  83 MISG      30.02S
VICKSBURG      SUNNY     77  73  87 CALM      30.01R
$$

MSZ059>079-281400-
SOUTH MISSISSIPPI

CITY           SKY/WX    TMP DP  RH WIND       PRES   REMARKS
BROOKHAVEN     FAIR      72  72 100 CALM      30.04R FOG
COLUMBIA       FAIR      73  72  94 CALM      30.01R
HATTIESBURG    MOSUNNY   74  70  87 CALM      30.03R
MCCOMB         PTSUNNY   75  72  90 CALM      30.01S
NATCHEZ        SUNNY     75  73  94 CALM      30.01S
PINE BELT      MOSUNNY  N/A N/A N/A CALM      30.03S
$$

MSZ080>082-281400-
COASTAL MISSISSIPPI

CITY           SKY/WX    TMP DP  RH WIND       PRES   REMARKS
BAY ST LOUIS   PTSUNNY  N/A N/A N/A VRB5      30.00R
BILOXI         PTSUNNY   79  73  81 NE5       30.00R
PASCAGOULA     PTSUNNY   78  74  87 CALM      30.01R
GULFPORT       CLOUDY    80  73  79 NE3       29.99R
$$



USA.gov is the U.S. government's official web portal to all federal, state and local government web resources and services.